www.pogodaiklimat.ru

Погода и климат >> Архив погоды >> Антарктида >> McMurdo


АРХИВ ПОГОДЫ в McMurdo

Время (UTC), дата Ветер
(напр.,м/с)
 
Видим.   Явления Облачность Т
(С)
Тd
(С)
f
(%)
Тe
(С)
Тes
(С)
Комфортность P
(гПа)
Po
(гПа)
Тmin
(С)
Tmax
(С)
R
(мм)
R24
(мм)
S
(см)
18 11.10 З 4 11 км 6/3 900 м
[Sc Ac As]
-11.3 -17.8 59 -18 -18 тепло 972.0 967.8
21 11.10 Ю 10 6000 м метель туман 9/9 600 м
[Sc]
-13.3 -16.2 79 -25 -25 по сезону 976.1 971.8
00 12.10 ЮВ 10 600 м слабый снег {метель} 10/10 240 м
[Frnb]
-16.0 -18.8 79 -28 -28 по сезону 979.8 975.5 -16.2 -9.2
03 12.10 ЮВ 9 400 м снег {метель} туман 10/10 180 м
[Frnb]
-19.2 -22.4 76 -32 -32 опасность
обморожения
982.5 978.2
06 12.10 В 9 11 км {снег, метель} 9/6 1200 м
[Sc Ac As]
-17.2 -21.5 69 -29 -29 прохладно 981.9 977.6
09 12.10 В 6 11 км 8/6 1200 м
[Sc Ac As]
-14.8 -19.5 67 -24 -24 по сезону 981.0 976.7
12 12.10 штиль 0 11 км 5/3 1200 м
[Sc Ac As]
-16.8 -21.4 67 -17 -17 тепло 980.2 975.9 -23.5 -14.3 0.0
15 12.10 штиль 0 8000 м слабый снег 9/9 1200 м
[Sc]
-18.1 -22.2 70 -18 -18 тепло 979.7 975.3
18 12.10 штиль 0 9000 м слабый снег 10/4 900 м
[Sc Ac trans]
-15.5 -18.1 80 -16 -15 тепло 978.9 974.6
21 12.10 штиль 0 3200 м слабый снег 10/10 450 м
[Sc]
-13.5 -16.2 80 -14 -14 тепло 980.0 975.7
00 13.10 В 7 11 км {снег} 9/1 1200 м
[Sc Ac As Cs]
-14.9 -19.2 70 -25 -25 по сезону 981.5 977.2 -19.0 -12.7
03 13.10 В 9 6000 м слабый снег {метель} туман 9/8 300 м
[Sc Ac As]
-19.9 -23.8 71 -33 -33 опасность
обморожения
982.5 978.1
06 13.10 В 5 11 км {снег, метель} 9/8 300 м
[Sc Ac As]
-16.0 -21.2 64 -25 -25 по сезону 983.5 979.2
09 13.10 В 8 6000 м слабый снег туман 10/8 300 м
[Sc]
-19.0 -22.9 71 -31 -31 опасность
обморожения
985.4 981.1
12 13.10 В 7 4000 м слабый снег {метель} туман 10/10 750 м
[Sc]
-19.2 -23.3 70 -30 -30 по сезону 986.9 982.5 -20.6 -15.0 3
15 13.10 В 8 4800 м метель {снег} туман 10/10 960 м
[Sc]
-21.4 -25.4 70 -34 -34 опасность
обморожения
989.6 985.2
18 13.10 СВ 9 4000 м метель туман 10/10 840 м
[Sc]
-22.1 -25.9 71 -36 -36 опасность
обморожения
992.9 988.5
00 14.10 СВ 5 11 км {метель} 9/6 1500 м
[Sc Ac As Ci fib]
-19.7 -25.1 62 -30 -29 прохладно 998.7 994.2 -22.7 -19.4
03 14.10 В 3 11 км 9/0 2000 м
[Ac As Cs]
-19.4 -24.4 64 -27 -26 по сезону 999.8 995.3
06 14.10 СВ 9 11 км 8/1 1500 м
[Sc Ac As Cs]
-20.4 -25.6 63 -33 -33 опасность
обморожения
1000.3 955.8
12 14.10 штиль 0 11 км 3/1 1500 м
[Sc Ci]
-20.9 -26.8 59 -21 -21 по сезону 1000.1 995.6 -21.8 -18.9 0.0
15 14.10 СВ 2 11 км 9/8 450 м
[Sc diur, vesp Ci fib]
-19.6 -26.1 56 -25 -25 по сезону 998.6 994.1
18 14.10 штиль 0 11 км 9/9 720 м
[Sc]
-20.6 -25.8 63 -21 -21 по сезону 997.5 993.0
21 14.10 штиль 0 11 км слабый снег 9/9 720 м
[Sc]
-18.3 -24.2 60 -18 -18 по сезону 997.9 993.4
00 15.10 В 4 11 км {снег} 10/10 900 м
[Sc]
-21.2 -25.9 66 -31 -31 опасность
обморожения
999.0 994.5 -23.0 -17.0
03 15.10 В 6 11 км 10/9 1050 м
[Sc Ac As]
-19.0 -24.7 61 -29 -29 прохладно 999.8 995.4
06 15.10 В 2 11 км 8/0
[Ac As Ci]
-18.5 -23.9 62 -24 -23 по сезону 1001.1 996.6
12 15.10 штиль 0 11 км 3/0
[Ac As Ci fib]
-18.4 -25.0 56 -18 -18 по сезону 1004.1 999.6 -21.1 -16.8 0.0
15 15.10 СВ 8 11 км 1/1 900 м
[Sc]
-24.0 -29.7 59 -37 -37 опасность
обморожения
1004.6 1000.2
18 15.10 СВ 8 11 км 3/1 900 м
[Sc Ac As]
-23.9 -30.4 55 -37 -37 опасность
обморожения
1003.7 999.2
00 16.10 СВ 4 11 км 9/9 660 м
[Sc]
-20.5 -28.4 49 -30 -29 холодно 1001.0 996.6 -23.8 -18.4
03 16.10 СВ 9 11 км 6/5 660 м
[Sc]
-23.0 -31.0 48 -37 -37 опасность
обморожения
998.9 994.4
06 16.10 СВ 9 11 км 9/9 720 м
[Sc]
-22.9 -30.3 51 -37 -37 опасность
обморожения
996.3 991.8
12 16.10 СВ 5 11 км 9/9 660 м
[Sc]
-21.9 -28.8 54 -32 -32 опасность
обморожения
988.7 984.2 -23.7 -21.3
15 16.10 СВ 6 11 км 9/9 600 м
[Sc]
-23.8 -29.8 58 -35 -35 опасность
обморожения
984.2 979.7
18 16.10 СВ 8 11 км 9/9 600 м
[Sc]
-25.2 -31.1 58 -39 -39 опасность
обморожения
980.1 975.7
00 17.10 СВ 6 11 км слабый снег 10/10 600 м
[Sc]
-20.8 -25.8 64 -32 -32 опасность
обморожения
973.8 969.4 -26.0 -20.3
03 17.10 штиль 0 11 км слабый снег 10/10 540 м
[Sc]
-17.9 -22.8 65 -18 -18 по сезону 972.2 967.9
06 17.10 В 6 6000 м слабый снег 10/10 660 м
[Sc]
-23.8 -28.4 66 -35 -35 опасность
обморожения
972.8 968.4
12 17.10 штиль 0 11 км {снег} ясно -23.9 -28.0 69 -24 -24 по сезону 972.3 968.0 -24.9 -17.5 0.0
15 17.10 штиль 0 11 км 1/1 600 м
[St As op]
-26.1 -30.1 69 -26 -26 по сезону 972.6 968.2
18 17.10 СЗ 4 11 км 3/0 2000 м
[Ac und]
-20.7 -25.2 67 -30 -30 прохладно 971.7 967.3
00 18.10 С 6 11 км 4/1 1350 м
[Cu hum Ac As]
-17.8 -28.4 39 -28 -27 прохладно 969.9 986.5 -28.9 -17.7
03 18.10 СЗ 7 11 км 5/5 900 м
[Sc]
-17.2 -22.0 66 -28 -28 прохладно 969.0 964.5
06 18.10 СЗ 6 11 км осадки на расстоянии 6/5 900 м
[Sc Cc]
-16.9 -22.3 63 -27 -27 прохладно 968.3 964.0
12 18.10 СЗ 6 11 км 8/1 600 м
[Sc As op Ci fib]
-18.5 -22.6 70 -29 -29 по сезону 969.6 965.2 -18.5 -16.9

 

Местоположение метеостанции McMurdo (Антарктида): широта -77.85 долгота 166.66 высота над уровнем моря 24 м.

В архиве по умолчанию представлена погода в McMurdo за последнюю неделю. Архивные данные за месяц целиком и за предыдущие месяцы, начиная с января 2011 года, Вы можете получить, выбрав интересующий диапазон дат из раскрывающегося списка и нажав кнопку "Ввод!".


*Определитесь, кто Вы:
робот инопланетянин человек

Внимание! Время в таблицах - всемирное. Для получения местного времени необходимо прибавить поправку, которая в McMurdo равна 0 ч.

Смотрите также архив погоды в соседних городах и на ближайших метеорологических станциях:

Погода в Pegasus North (Антарктида) (12 км)
Погода в Linda (Антарктида) (78 км)
Погода в Minna Bluff (Антарктида) (78 км)
Погода в Marble Point (Антарктида) (84 км)
Погода в Ferrell (Антарктида) (97 км)
Погода в Cape Ross (Антарктида) (156 км)
Погода в Marilyn (Антарктида) (236 км)
Погода в Schwerdtfeger (Антарктида) (236 км)
Погода в Manuela (Антарктида) (333 км)
Погода в Baia Terra Nova (Антарктида) (357 км)

Пояснения к столбцам:

Ветер - указаны скорость ветра в м/с - средняя за 10 мин, порывы в срок и между сроками (в фигурных скобках) и направление, откуда дует ветер: С - северный, СВ - северо-восточный, В - восточный, ЮВ - юго-восточный, Ю - южный, ЮЗ - юго-западный, З - западный, СЗ - северо-западный.
Видимость - горизонтальная дальность видимости в метрах или километрах. При видимости от 1 до 10 км при отсутствии осадков обычно наблюдается дымка, при ухудшении видимости до 1 км и менее - туман. В сухую погоду видимость может ухудшаться дымом, пылью или мглою.
Явления - указаны атмосферные явления, наблюдавшиеся в срок или в последний час перед сроком; фигурными скобками обозначены явления, наблюдавшиеся между сроками (за 1-3 часа до срока); квадратными скобками обозначены град или гололедные отложения с указанием их диаметра в мм.
Облачность - указаны через наклонную черту общая и нижняя облачность в баллах и высота нижней границы облаков в метрах; квадратными скобками обозначены формы облаков: Ci - перистые, Cs - перисто-слоистые, Cc - перисто-кучевые, Ac - высококучевые, As - высокослоистые, Sc - слоисто-кучевые, Ns - слоисто-дождевые, Cu - кучевые, Cb - кучево-дождевые. Подробнее классификацию облаков см. в Атласе облаков (PDF).
T - Температура воздуха - температура, измеренная на высоте 2 м над землей.
Td - Температура точки росы - температура, при понижении до которой содержащийся в воздухе водяной пар достигнет насыщения.
f - Относительная влажность воздуха - влажноcть воздуха, измеренная на высоте 2 м над землей.
Te - Эффективная температура - температура, которую ощущает одетый по сезону человек в тени. Характеристика душности погоды. При расчете учитывается влияние влажности воздуха и скорости ветра на теплоощущения человека.
Tes - Эффективная температура на солнце - температура, которую ощущает человек, с поправкой на солнечный нагрев. Характеристика знойности погоды. Зависит от высоты солнца над горизонтом, облачности и скорости ветра. Ночью, в пасмурную погоду, а также при ветре 12 м/с и более поправка равна нулю.
P - Атмосферное давление - приведенное к уровню моря атмосферное давление.
Po - Атмосферное давление - измеренное на уровне метеостанции атмосферное давление.
Tmin - Минимальная температура - минимум температуры воздуха на высоте 2 м над землей.
Tmax - Максимальная температура - максимум температуры воздуха на высоте 2 м над землей.
R - Количество осадков - Количество выпавших осадков за период времени, мм. При наведении курсора мыши на число - период времени, за который выпало указанное количество осадков.
R24 - Количество осадков - Количество выпавших осадков за 24 часа, мм.
S - Снежный покров - Высота снежного покрова, см. При наведении курсора мыши на число - состояние снежного покрова и степень покрытия местности в баллах.